CCA171 ZSWX-ZKPY

Flight info

Callsign CCA171
Flight time 1h 24m
Altitude 39100
Route PIMOL G330 UNTAN AGAVO G597 GONAV Y644 BODOL SASRI
Aircraft A343/H-SDE2E3FGHIJ4J5M1RWXY/LB1D1

Departure

Time 2026-05-06 06:26
Airport Sunan Shuofang International Airport (ZSWX)

Arrival

Time 2026-05-06 07:50
Airport Pyongyang Sunan International Airport (ZKPY)
Time Latitude Longitude Altitude Speed Heading
2026-05-06 05:41 31.50730 120.43059 33 ft 0 kts 290°
2026-05-06 06:15 31.50727 120.43068 29 ft 3 kts 290°
2026-05-06 06:15 31.50720 120.43090 29 ft 3 kts 290°
2026-05-06 06:15 31.50713 120.43112 29 ft 3 kts 291°
2026-05-06 06:15 31.50705 120.43128 28 ft 3 kts 339°
2026-05-06 06:16 31.50689 120.43130 27 ft 1 kts 20°
2026-05-06 06:16 31.50672 120.43122 29 ft 3 kts 20°
2026-05-06 06:16 31.50657 120.43116 29 ft 0 kts 20°
2026-05-06 06:21 31.50673 120.43123 29 ft 4 kts 20°
2026-05-06 06:21 31.50712 120.43140 27 ft 8 kts 20°
2026-05-06 06:22 31.50749 120.43168 32 ft 3 kts 64°
2026-05-06 06:22 31.50749 120.43205 28 ft 6 kts 103°
2026-05-06 06:22 31.50752 120.43233 29 ft 2 kts 54°
2026-05-06 06:22 31.50776 120.43255 30 ft 7 kts 32°
2026-05-06 06:23 31.50833 120.43281 30 ft 11 kts 19°
2026-05-06 06:23 31.50915 120.43316 30 ft 14 kts 20°
2026-05-06 06:23 31.51017 120.43360 30 ft 17 kts 20°
2026-05-06 06:23 31.51101 120.43396 30 ft 10 kts 20°
2026-05-06 06:24 31.51132 120.43457 31 ft 10 kts 102°
2026-05-06 06:24 31.51102 120.43540 29 ft 13 kts 110°
2026-05-06 06:24 31.51062 120.43614 28 ft 7 kts 156°
2026-05-06 06:24 31.51011 120.43608 28 ft 9 kts 197°
2026-05-06 06:25 31.51006 120.43606 28 ft 0 kts 200°
2026-05-06 06:25 31.50809 120.43521 29 ft 69 kts 200°
2026-05-06 06:25 31.49182 120.42808 614 ft 147 kts 197°
2026-05-06 06:26 31.48216 120.42383 1408 ft 156 kts 197°
2026-05-06 06:26 31.47068 120.41904 1842 ft 196 kts 198°
2026-05-06 06:26 31.45711 120.41292 2697 ft 217 kts 205°
2026-05-06 06:26 31.44579 120.40152 4037 ft 217 kts 234°
2026-05-06 06:27 31.44173 120.38467 5273 ft 222 kts 272°
2026-05-06 06:27 31.44756 120.36800 6484 ft 227 kts 310°
2026-05-06 06:27 31.45968 120.35619 7668 ft 227 kts 323°
2026-05-06 06:27 31.47283 120.34606 8851 ft 226 kts 323°
2026-05-06 06:28 31.48607 120.33607 10005 ft 227 kts 323°
2026-05-06 06:28 31.49935 120.32586 10977 ft 230 kts 323°
2026-05-06 06:28 31.51349 120.31645 11899 ft 239 kts 336°
2026-05-06 06:28 31.53030 120.31291 12696 ft 258 kts 355°
2026-05-06 06:29 31.54929 120.31399 13129 ft 288 kts
2026-05-06 06:29 31.57026 120.31542 13515 ft 314 kts 356°
2026-05-06 06:29 31.59252 120.31142 13856 ft 335 kts 340°
2026-05-06 06:29 31.61404 120.29924 14165 ft 354 kts 326°
2026-05-06 06:30 31.63483 120.28261 14672 ft 368 kts 323°
2026-05-06 06:30 31.65587 120.26493 15353 ft 376 kts 322°
2026-05-06 06:30 31.67727 120.24695 16134 ft 381 kts 322°
2026-05-06 06:30 31.69897 120.22878 16970 ft 385 kts 322°
2026-05-06 06:31 31.72093 120.21046 17797 ft 389 kts 322°
2026-05-06 06:31 31.74317 120.19193 18551 ft 394 kts 322°
2026-05-06 06:31 31.76552 120.17319 19290 ft 396 kts 321°
2026-05-06 06:31 31.78791 120.15406 20037 ft 399 kts 321°
2026-05-06 06:32 31.81041 120.13482 20757 ft 402 kts 321°
2026-05-06 06:32 31.83315 120.11541 21477 ft 405 kts 322°
2026-05-06 06:32 31.85728 120.09784 22146 ft 412 kts 330°
2026-05-06 06:32 31.88433 120.08585 22816 ft 421 kts 343°
2026-05-06 06:33 31.91367 120.08208 23482 ft 431 kts 358°
2026-05-06 06:33 31.94354 120.08822 24042 ft 443 kts 14°
2026-05-06 06:33 31.97201 120.10287 24575 ft 452 kts 25°
2026-05-06 06:33 31.99907 120.12223 25120 ft 457 kts 30°
2026-05-06 06:34 32.02538 120.14361 25650 ft 461 kts 31°
2026-05-06 06:34 32.05165 120.16559 26148 ft 465 kts 31°
2026-05-06 06:34 32.07825 120.18749 26637 ft 468 kts 30°
2026-05-06 06:34 32.10525 120.20911 27123 ft 471 kts 29°
2026-05-06 06:35 32.13265 120.23045 27600 ft 474 kts 29°
2026-05-06 06:35 32.16008 120.25143 28002 ft 478 kts 28°
2026-05-06 06:35 32.18815 120.27268 28463 ft 481 kts 28°
2026-05-06 06:35 32.21646 120.29399 28916 ft 484 kts 27°
2026-05-06 06:36 32.24524 120.31473 29344 ft 486 kts 26°
2026-05-06 06:36 32.27445 120.33500 29763 ft 488 kts 25°
2026-05-06 06:36 32.30389 120.35517 30137 ft 491 kts 25°
2026-05-06 06:36 32.33352 120.37549 30511 ft 493 kts 25°
2026-05-06 06:37 32.36325 120.39601 30827 ft 496 kts 26°
2026-05-06 06:37 32.39301 120.41670 31263 ft 496 kts 26°
2026-05-06 06:37 32.42262 120.43744 31832 ft 492 kts 26°
2026-05-06 06:37 32.45195 120.45806 32436 ft 488 kts 26°
2026-05-06 06:38 32.48106 120.47857 33005 ft 485 kts 26°
2026-05-06 06:38 32.50993 120.49892 33544 ft 482 kts 26°
2026-05-06 06:38 32.53869 120.51918 34052 ft 479 kts 26°
2026-05-06 06:38 32.56728 120.53934 34462 ft 478 kts 26°
2026-05-06 06:39 32.59581 120.55945 34844 ft 477 kts 26°
2026-05-06 06:39 32.62429 120.57954 35239 ft 475 kts 26°
2026-05-06 06:39 32.65267 120.59958 35627 ft 474 kts 26°
2026-05-06 06:39 32.68099 120.61958 36002 ft 473 kts 26°
2026-05-06 06:40 32.70926 120.63957 36376 ft 472 kts 26°
2026-05-06 06:40 32.73746 120.65953 36753 ft 471 kts 25°
2026-05-06 06:40 32.76559 120.67946 37113 ft 471 kts 25°
2026-05-06 06:40 32.79369 120.69937 37485 ft 469 kts 25°
2026-05-06 06:41 32.82169 120.71924 37861 ft 468 kts 25°
2026-05-06 06:41 32.84961 120.73907 38235 ft 467 kts 25°
2026-05-06 06:41 32.87746 120.75885 38594 ft 466 kts 25°
2026-05-06 06:41 32.90523 120.77860 38869 ft 465 kts 25°
2026-05-06 06:42 32.93310 120.79841 39007 ft 469 kts 25°
2026-05-06 06:42 32.98876 120.83802 39019 ft 468 kts 25°
2026-05-06 06:43 33.04464 120.87790 39018 ft 468 kts 25°
2026-05-06 06:43 33.10050 120.91782 39017 ft 468 kts 25°
2026-05-06 06:44 33.15640 120.95781 39022 ft 469 kts 25°
2026-05-06 06:44 33.21232 120.99790 39022 ft 468 kts 25°
2026-05-06 06:45 33.26807 121.03793 39028 ft 467 kts 25°
2026-05-06 06:45 33.32382 121.07800 39033 ft 468 kts 25°
2026-05-06 06:46 33.37961 121.11816 39027 ft 468 kts 25°
2026-05-06 06:46 33.43544 121.15842 39028 ft 468 kts 25°
2026-05-06 06:47 33.49124 121.19871 39047 ft 468 kts 25°
2026-05-06 06:47 33.54705 121.23905 39033 ft 468 kts 24°
2026-05-06 06:48 33.60275 121.27940 39033 ft 467 kts 25°
2026-05-06 06:48 33.65834 121.31971 39042 ft 467 kts 25°
2026-05-06 06:49 33.71354 121.35978 39040 ft 467 kts 25°
2026-05-06 06:49 33.76913 121.40021 39038 ft 467 kts 25°
2026-05-06 06:50 33.82471 121.44070 39041 ft 467 kts 25°
2026-05-06 06:50 33.88027 121.48125 39041 ft 467 kts 24°
2026-05-06 06:51 33.93585 121.52187 39043 ft 468 kts 24°
2026-05-06 06:51 33.99144 121.56257 39046 ft 467 kts 25°
2026-05-06 06:52 34.04693 121.60325 39063 ft 467 kts 25°
2026-05-06 06:52 34.10241 121.64399 39049 ft 467 kts 24°
2026-05-06 06:53 34.15792 121.68481 39049 ft 467 kts 24°
2026-05-06 06:53 34.21339 121.72567 39050 ft 467 kts 24°
2026-05-06 06:54 34.26890 121.76662 39053 ft 467 kts 24°
2026-05-06 06:54 34.32434 121.80759 39053 ft 467 kts 24°
2026-05-06 06:55 34.37973 121.84859 39052 ft 467 kts 24°
2026-05-06 06:55 34.43511 121.88963 39058 ft 466 kts 24°
2026-05-06 06:56 34.49044 121.93070 39056 ft 466 kts 24°
2026-05-06 06:56 34.54577 121.97184 39060 ft 467 kts 24°
2026-05-06 06:57 34.60110 122.01304 39075 ft 467 kts 24°
2026-05-06 06:57 34.65644 122.05433 39051 ft 467 kts 24°
2026-05-06 06:58 34.71179 122.09568 39061 ft 466 kts 24°
2026-05-06 06:58 34.76660 122.13671 39060 ft 465 kts 24°
2026-05-06 06:59 34.82169 122.17799 39057 ft 466 kts 24°
2026-05-06 06:59 34.87689 122.21941 39060 ft 466 kts 24°
2026-05-06 07:00 34.93209 122.26093 39065 ft 466 kts 24°
2026-05-06 07:00 34.98731 122.30253 39070 ft 467 kts 24°
2026-05-06 07:01 35.04253 122.34419 39067 ft 467 kts 24°
2026-05-06 07:01 35.09768 122.38588 39068 ft 465 kts 24°
2026-05-06 07:02 35.15269 122.42752 39078 ft 465 kts 24°
2026-05-06 07:02 35.20775 122.46922 39065 ft 466 kts 24°
2026-05-06 07:03 35.26286 122.51103 39071 ft 466 kts 24°
2026-05-06 07:03 35.31796 122.55293 39079 ft 466 kts 24°
2026-05-06 07:04 35.37306 122.59488 39066 ft 466 kts 24°
2026-05-06 07:04 35.42814 122.63691 39067 ft 466 kts 24°
2026-05-06 07:05 35.48307 122.67890 39087 ft 465 kts 24°
2026-05-06 07:05 35.53793 122.72087 39068 ft 465 kts 24°
2026-05-06 07:06 35.59280 122.76291 39068 ft 465 kts 24°
2026-05-06 07:06 35.64727 122.80473 39069 ft 465 kts 24°
2026-05-06 07:07 35.70215 122.84694 39070 ft 465 kts 24°
2026-05-06 07:07 35.75699 122.88919 39069 ft 465 kts 24°
2026-05-06 07:08 35.81173 122.93150 39068 ft 463 kts 24°
2026-05-06 07:08 35.86633 122.97368 39070 ft 463 kts 23°
2026-05-06 07:09 35.91173 123.00879 39068 ft 464 kts 24°
2026-05-06 07:09 35.97560 123.05829 39068 ft 464 kts 24°
2026-05-06 07:10 36.03023 123.10073 39069 ft 464 kts 23°
2026-05-06 07:10 36.07566 123.13606 39066 ft 464 kts 23°
2026-05-06 07:11 36.13030 123.17870 39066 ft 464 kts 24°
2026-05-06 07:11 36.18479 123.22126 39068 ft 463 kts 24°
2026-05-06 07:12 36.23925 123.26379 39066 ft 463 kts 24°
2026-05-06 07:12 36.29370 123.30638 39069 ft 463 kts 24°
2026-05-06 07:13 36.34811 123.34906 39072 ft 463 kts 23°
2026-05-06 07:13 36.40265 123.39189 39077 ft 464 kts 23°
2026-05-06 07:14 36.45722 123.43484 39079 ft 464 kts 24°
2026-05-06 07:14 36.51179 123.47787 39070 ft 465 kts 23°
2026-05-06 07:15 36.56639 123.52099 39067 ft 465 kts 23°
2026-05-06 07:15 36.62100 123.56419 39067 ft 465 kts 23°
2026-05-06 07:16 36.67563 123.60750 39077 ft 466 kts 23°
2026-05-06 07:16 36.73035 123.65093 39061 ft 467 kts 23°
2026-05-06 07:17 36.78511 123.69447 39060 ft 467 kts 23°
2026-05-06 07:17 36.83982 123.73806 39070 ft 466 kts 23°
2026-05-06 07:18 36.89450 123.78169 39059 ft 467 kts 23°
2026-05-06 07:18 36.94922 123.82540 39062 ft 467 kts 23°
2026-05-06 07:19 37.00387 123.86916 38992 ft 463 kts 23°
2026-05-06 07:19 37.05745 123.91225 38962 ft 456 kts 22°
2026-05-06 07:20 37.10932 123.95910 38857 ft 471 kts 34°
2026-05-06 07:20 37.13191 123.98976 38941 ft 488 kts 44°
2026-05-06 07:20 37.15069 124.02606 38964 ft 506 kts 55°
2026-05-06 07:20 37.16391 124.06690 38960 ft 519 kts 67°
2026-05-06 07:21 37.17076 124.11177 38965 ft 529 kts 78°
2026-05-06 07:21 37.17534 124.20427 38963 ft 534 kts 83°
2026-05-06 07:22 37.17735 124.29718 38963 ft 531 kts 84°
2026-05-06 07:22 37.17951 124.38957 38969 ft 529 kts 83°
2026-05-06 07:23 37.18196 124.48175 38977 ft 529 kts 84°
2026-05-06 07:23 37.18400 124.57406 38977 ft 529 kts 84°
2026-05-06 07:24 37.18592 124.66609 38947 ft 527 kts 84°
2026-05-06 07:24 37.18886 124.75767 38854 ft 521 kts 76°
2026-05-06 07:24 37.19767 124.80091 38641 ft 504 kts 60°
2026-05-06 07:25 37.21428 124.83849 38380 ft 485 kts 45°
2026-05-06 07:25 37.23739 124.86814 38100 ft 467 kts 28°
2026-05-06 07:25 37.26498 124.88786 37842 ft 449 kts 12°
2026-05-06 07:25 37.29473 124.89692 37574 ft 434 kts 358°
2026-05-06 07:26 37.32438 124.89616 37311 ft 422 kts 345°
2026-05-06 07:26 37.35366 124.89171 37045 ft 429 kts 351°
2026-05-06 07:26 37.38382 124.89346 36778 ft 440 kts
2026-05-06 07:26 37.41416 124.90037 36526 ft 446 kts
2026-05-06 07:27 37.44454 124.90869 36717 ft 449 kts 11°
2026-05-06 07:27 37.47530 124.91761 36484 ft 459 kts 13°
2026-05-06 07:27 37.50666 124.92691 36282 ft 467 kts 13°
2026-05-06 07:27 37.53860 124.93647 35958 ft 478 kts 13°
2026-05-06 07:28 37.57133 124.94631 35566 ft 489 kts 13°
2026-05-06 07:28 37.60472 124.95638 35155 ft 496 kts 13°
2026-05-06 07:28 37.67211 124.97675 34217 ft 499 kts 13°
2026-05-06 07:29 37.70596 124.98700 33324 ft 500 kts 13°
2026-05-06 07:29 37.73978 124.99726 32454 ft 500 kts 13°
2026-05-06 07:29 37.77358 125.00751 31568 ft 500 kts 13°
2026-05-06 07:29 37.80742 125.01780 30648 ft 500 kts 13°
2026-05-06 07:30 37.84115 125.02805 29934 ft 494 kts 13°
2026-05-06 07:30 37.87431 125.03815 29322 ft 486 kts 13°
2026-05-06 07:30 37.90690 125.04808 28701 ft 478 kts 13°
2026-05-06 07:30 37.93907 125.05789 28082 ft 474 kts 13°
2026-05-06 07:31 37.97107 125.06766 27464 ft 471 kts 13°
2026-05-06 07:31 38.00268 125.07732 26857 ft 463 kts 13°
2026-05-06 07:31 38.03380 125.08683 26255 ft 456 kts 13°
2026-05-06 07:31 38.06456 125.09625 25651 ft 454 kts 13°
2026-05-06 07:32 38.09516 125.10562 25045 ft 451 kts 13°
2026-05-06 07:32 38.12540 125.11489 24449 ft 443 kts 13°
2026-05-06 07:32 38.15516 125.12402 23850 ft 437 kts 13°
2026-05-06 07:32 38.18461 125.13306 23254 ft 434 kts 13°
2026-05-06 07:33 38.21384 125.14205 22655 ft 431 kts 13°
2026-05-06 07:33 38.24244 125.15084 22072 ft 426 kts 13°
2026-05-06 07:33 38.27104 125.15964 21487 ft 420 kts 13°
2026-05-06 07:33 38.29922 125.16832 20907 ft 415 kts 13°
2026-05-06 07:34 38.32721 125.17695 20330 ft 413 kts 13°
2026-05-06 07:34 38.35500 125.18552 19758 ft 409 kts 13°
2026-05-06 07:34 38.38243 125.19399 19195 ft 403 kts 13°
2026-05-06 07:34 38.40952 125.20236 18639 ft 398 kts 13°
2026-05-06 07:35 38.43635 125.21065 18085 ft 395 kts 13°
2026-05-06 07:35 38.46301 125.21890 17535 ft 393 kts 13°
2026-05-06 07:35 38.48942 125.22709 16991 ft 389 kts 13°
2026-05-06 07:35 38.51559 125.23519 16448 ft 385 kts 13°
2026-05-06 07:36 38.54147 125.24322 15906 ft 381 kts 13°
2026-05-06 07:36 38.56713 125.25118 15368 ft 378 kts 13°
2026-05-06 07:36 38.59255 125.25908 14710 ft 375 kts 13°
2026-05-06 07:36 38.61783 125.26691 14242 ft 373 kts
2026-05-06 07:37 38.64302 125.27471 13710 ft 372 kts
2026-05-06 07:37 38.66819 125.28255 13156 ft 372 kts
2026-05-06 07:37 38.69330 125.29039 12601 ft 370 kts 10°
2026-05-06 07:37 38.71826 125.29820 12064 ft 368 kts 10°
2026-05-06 07:38 38.74309 125.30596 11529 ft 366 kts 10°
2026-05-06 07:38 38.76757 125.31362 11256 ft 355 kts 10°
2026-05-06 07:38 38.79102 125.32096 11149 ft 339 kts 10°
2026-05-06 07:38 38.81348 125.32800 11040 ft 326 kts 10°
2026-05-06 07:39 38.83508 125.33480 10938 ft 314 kts
2026-05-06 07:39 38.85601 125.34137 10766 ft 307 kts
2026-05-06 07:39 38.87683 125.34784 10439 ft 308 kts
2026-05-06 07:39 38.89762 125.35434 10093 ft 307 kts
2026-05-06 07:40 38.91805 125.36077 9730 ft 306 kts 10°
2026-05-06 07:40 38.93865 125.36725 9347 ft 304 kts 10°
2026-05-06 07:40 38.95913 125.37367 9007 ft 302 kts 10°
2026-05-06 07:40 38.97910 125.37993 8682 ft 301 kts 10°
2026-05-06 07:41 38.99919 125.38622 8342 ft 300 kts 10°
2026-05-06 07:41 39.01909 125.39278 7904 ft 303 kts 13°
2026-05-06 07:41 39.03868 125.40368 7507 ft 305 kts 27°
2026-05-06 07:41 39.05665 125.41764 7370 ft 301 kts 30°
2026-05-06 07:42 39.07454 125.43208 7303 ft 305 kts 30°
2026-05-06 07:42 39.09239 125.44642 7081 ft 301 kts 30°
2026-05-06 07:42 39.11019 125.46063 6759 ft 302 kts 30°
2026-05-06 07:42 39.12801 125.47482 6444 ft 300 kts 30°
2026-05-06 07:43 39.14570 125.48886 6115 ft 297 kts 30°
2026-05-06 07:43 39.16336 125.50285 5846 ft 300 kts 29°
2026-05-06 07:43 39.18119 125.51700 5588 ft 300 kts 29°
2026-05-06 07:43 39.19892 125.53105 5327 ft 300 kts 29°
2026-05-06 07:44 39.21691 125.54355 5199 ft 287 kts 16°
2026-05-06 07:44 39.23593 125.54585 4998 ft 268 kts 345°
2026-05-06 07:44 39.25369 125.54018 4780 ft 260 kts 337°
2026-05-06 07:44 39.27086 125.53320 4442 ft 258 kts 336°
2026-05-06 07:45 39.28798 125.52608 4100 ft 259 kts 337°
2026-05-06 07:45 39.30493 125.51974 3894 ft 255 kts 346°
2026-05-06 07:45 39.32232 125.52197 3763 ft 254 kts 22°
2026-05-06 07:45 39.33517 125.53662 3670 ft 245 kts 62°
2026-05-06 07:46 39.34119 125.55656 3606 ft 233 kts 77°
2026-05-06 07:46 39.34546 125.57635 3528 ft 224 kts 78°
2026-05-06 07:46 39.34785 125.59543 3385 ft 208 kts 99°
2026-05-06 07:46 39.34308 125.61177 3088 ft 188 kts 138°
2026-05-06 07:47 39.33278 125.62061 2765 ft 173 kts 165°
2026-05-06 07:47 39.32179 125.62555 2479 ft 163 kts 168°
2026-05-06 07:47 39.31088 125.62889 2055 ft 158 kts 170°
2026-05-06 07:47 39.30062 125.63294 1773 ft 152 kts 166°
2026-05-06 07:48 39.29067 125.63691 1551 ft 144 kts 167°
2026-05-06 07:48 39.28148 125.64038 1352 ft 131 kts 168°
2026-05-06 07:48 39.27310 125.64353 1180 ft 120 kts 167°
2026-05-06 07:48 39.26543 125.64651 1033 ft 113 kts 166°
2026-05-06 07:49 39.25802 125.64948 892 ft 111 kts 171°
2026-05-06 07:49 39.25055 125.65245 750 ft 114 kts 169°
2026-05-06 07:49 39.24304 125.65553 597 ft 113 kts 167°
2026-05-06 07:49 39.23565 125.65849 417 ft 109 kts 170°
2026-05-06 07:50 39.22835 125.66130 286 ft 111 kts 168°
2026-05-06 07:50 39.22082 125.66427 144 ft 115 kts 166°
2026-05-06 07:50 39.21372 125.66706 91 ft 89 kts 165°
2026-05-06 07:50 39.20950 125.66868 92 ft 38 kts 163°
2026-05-06 07:51 39.20790 125.66931 91 ft 21 kts 162°
2026-05-06 07:51 39.20695 125.66994 92 ft 10 kts 163°
2026-05-06 07:51 39.20618 125.67021 91 ft 15 kts 167°
2026-05-06 07:51 39.20507 125.67053 91 ft 18 kts 167°
2026-05-06 07:52 39.20377 125.67100 95 ft 21 kts 154°
2026-05-06 07:52 39.20290 125.67233 93 ft 15 kts 120°
2026-05-06 07:52 39.20244 125.67338 94 ft 10 kts 119°
2026-05-06 07:52 39.20192 125.67421 94 ft 14 kts 140°
2026-05-06 07:53 39.20113 125.67456 92 ft 8 kts 162°
2026-05-06 07:53 39.20081 125.67488 92 ft 5 kts 117°
2026-05-06 07:53 39.20082 125.67525 93 ft 2 kts 72°
2026-05-06 07:53 39.20085 125.67537 92 ft 2 kts 72°
2026-05-06 07:54 39.20087 125.67545 95 ft 1 kts 72°
2026-05-06 07:54 39.20088 125.67549 95 ft 0 kts 72°